Location: ??????????
(44.2167°N, 135.5333°E)
Time: 14:58:30
(UTC+00:00)

Cosmos 1544 Rocket - Pass Details

Date: 15 June 2025
Orbit: 598 x 625 km, 82.5° (Epoch: 15 July)

Event Time Altitude Azimuth Distance (km) Brightness Sun altitude
Rises 18:10:08 0° 346° (NNW) 2,858 7.4 -9.5°
Reaches altitude 10° 18:12:24 10° 341° (NNW) 1,949 6.5 -9.2°
Maximum altitude 18:16:33 49° 267° (W) 780 3.8 -8.7°
Drops below altitude 10° 18:20:40 10° 192° (SSW) 1,932 5.6 -8.2°
Enters shadow 18:21:52 - 189° (S) 2,410 6.1 -8.0°
